Location: Clifton Park
(41.4873°N, 81.8024°W)
Time: 17:21:28
(UTC+00:00)

STARLINK-68 - Pass Details

Date: 21 January 2020
Orbit: 528 x 531 km, 53.0° (Epoch: 19 February)

Event Time Altitude Azimuth Distance (km) Brightness Sun altitude
Exits shadow 11:01:41 54° 250° (WSW) 647 3.6 -19.8°
Maximum altitude 11:02:31 78° 323° (NW) 545 3.4 -19.6°
Drops below altitude 10° 11:06:33 10° 50° (NE) 1,781 6.7 -18.9°
Sets 11:08:47 0° 52° (NE) 2,674 7.7 -18.5°
